Location: Unspecified
(0.0000°N, 0.0000°E)
Time: 00:26:36
(UTC+00:00)

S-56A Canister/Altair - Pass Details

Date: 24 April 2019
Orbit: 632 x 2500 km, 38.9° (Epoch: 15 July)

Event Time Altitude Azimuth Distance (km) Brightness Sun altitude
Rises 18:27:22 0° 312° (NW) 4,077 12.5 -7.1°
Reaches altitude 10° 18:30:37 10° 312° (NW) 2,839 11.5 -7.9°
Maximum altitude 18:37:04 87° 40° (NE) 797 7.6 -9.5°
Enters shadow 18:41:43 11° 130° (SE) 2,069 9.2 -10.6°
